NOAA 16 DEB, 41261

Orbit data source: Space-Track

NOAA 16 DEB, 41261 is space debris in SSO originally from a launch on Thu, 21 Sep 2000 UTC launched from the Air Force Western Test Range (AFWTR). Debris objects in space refer to the collection of defunct objects orbiting the Earth. Examples of debris include non-operational satellites, rocket bodies, and fragments generated from explosions, collisions, or faulty payload assembly.

Loading next visibility...
Identifier
41261, 2000-055FM
Orbit
SSO
Country
Flag of USUS
Related business
Manufacturer
Unknown
Mission
Spacecraft
Bus & Motor
Unknown
Mass
Unknown
Launch date (UTC)
2000-09-21 (25 years ago)
Launch vehicle
Unknown
Launch site
Air Force Western Test Range (AFWTR)
Object type
Payload
Rocket body
Debris
Shape & HBR
Unknown shape, 0.1 m
Radar Cross Section
Small (<0.1 m²)

Expand to show TLE details & history
Last TLE update: 9 hours ago

TLE from 9 hours ago
0 NOAA 16 DEB
1 41261U 00055FM  25303.26065892  .00003826  00000-0  19600-2 0  9992
2 41261  98.6703 314.3864 0035222 193.5490 166.4741 14.15711820506812
Epoch: 2025-10-30T06:15Z
TLE epoch observation values (Epoch: 2025-10-30T06:15:20.930Z)
Latitude
-0.00012°
Longitude
-178.27278°
Altitude
867.53 km
Speed
7.406 km/s
True Right ascension
20h 57m 32s
True Declination
0° 00' 00"
Sunlit
Object was in daylight at epoch
Visualization orbit readout
Latitude
Unknown
Longitude
Unknown
Altitude
Unknown
Speed
Unknown
Apparent Right ascension
Unknown
Apparent Declination
Unknown
Sunlit
N/A
Visualization observer readout
Local Sidereal Time
10:23:15
Azimuth
Unknown
Elevation
Unknown
Doppler factor
Unknown
Orbital elements
Apogee altitude
862.467 km
Perigee altitude
811.641 km
Semi-major axis
7,215.191 km
Eccentricity
0.00352
Inclination
98.6703°
RAAN
314.3864°
Arg. of periapsis
193.549°
True anomaly
166.5681°
Mean anomaly
166.4741°
Eccentric anomaly
166.52114°
Mean motion
3.54137 °/min
Orbital period
101.66 mins
BSTAR
0.00196
Loading maneuver chart data...
Computing Atmospheric mass density...
Loading historical data...
Loading historical data...
Loading historical data...
Loading historical data...
Loading historical data...
Loading historical data...
Loading historical data...

Documentation

Showing up to 5 results
|